K9UO Weather Reports


time (UTC)temp
F
wind
direction
speed
knots
gust
knots
rain 1hr
in
rain 24hr
in
rain mn
in
humidity
%
barometer
mb
20260901094011 76 207 1.7 3.5 0.00 0.00 0.00 81 1017.1
20260901093511 76 200 1.7 3.5 0.00 0.00 0.00 81 1017.1
20260901093028 76 199 1.7 4.3 0.00 0.00 0.00 81 1017.1
20260901092512 76 234 1.7 4.3 0.00 0.00 0.00 81 1016.9
20260901092017 76 204 1.7 3.5 0.00 0.00 0.00 81 1017.0
20260901091530 76 207 0.9 3.5 0.00 0.00 0.00 81 1017.0
20260901091024 76 218 1.7 4.3 0.00 0.00 0.00 81 1016.8
20260901090503 76 207 1.7 4.3 0.00 0.00 0.00 81 1016.9
20260901090010 76 225 0.9 2.6 0.00 0.00 0.00 81 1017.0
20260901085505 76 212 1.7 4.3 0.00 0.00 0.00 81 1017.0
20260901085011 76 225 1.7 4.3 0.00 0.00 0.00 81 1016.8
20260901084517 76 196 1.7 5.2 0.00 0.00 0.00 81 1016.8
20260901084003 76 200 2.6 5.2 0.00 0.00 0.00 80 1016.8
20260901083502 76 214 2.6 5.2 0.00 0.00 0.00 81 1016.7
20260901083006 76 207 1.7 4.3 0.00 0.00 0.00 81 1016.7
20260901082504 76 194 2.6 6.1 0.00 0.00 0.00 80 1016.7
20260901082002 77 201 2.6 5.2 0.00 0.00 0.00 80 1016.7
20260901081506 76 201 2.6 5.2 0.00 0.00 0.00 80 1016.6
20260901081003 76 196 2.6 5.2 0.00 0.00 0.00 80 1016.6
20260901080504 76 208 2.6 5.2 0.00 0.00 0.00 80 1016.6
20260901080006 76 196 1.7 3.5 0.00 0.00 0.00 80 1016.7
20260901075504 76 205 1.7 3.5 0.00 0.00 0.00 80 1016.7
20260901075006 76 210 1.7 3.5 0.00 0.00 0.00 1016.7
20260901074508 77 192 1.7 3.5 0.00 0.00 0.00 80 1016.7
20260901074003 77 215 1.7 3.5 0.00 0.00 0.00 80 1016.7
20260901073503 77 208 1.7 5.2 0.00 0.00 0.00 80 1016.7
20260901073012 77 211 2.6 5.2 0.00 0.00 0.00 80 1016.7
20260901072505 77 200 1.7 4.3 0.00 0.00 0.00 80 1016.7
20260901072002 77 213 1.7 4.3 0.00 0.00 0.00 80 1016.7
20260901071504 77 241 1.7 4.3 0.00 0.00 0.00 80 1016.7
20260901071003 77 211 2.6 4.3 0.00 0.00 0.00 80 1016.6
20260901070502 77 215 1.7 4.3 0.00 0.00 0.00 80 1016.6
20260901070006 77 215 1.7 4.3 0.00 0.00 0.00 80 1016.6
20260901065505 77 212 2.6 7.0 0.00 0.00 0.00 80 1016.6
20260901065002 77 219 2.6 7.0 0.00 0.00 0.00 79 1016.6
20260901064510 77 213 1.7 5.2 0.00 0.00 0.00 79 1016.6
20260901064003 77 201 2.6 5.2 0.00 0.00 0.00 79 1016.7
20260901063502 77 211 2.6 5.2 0.00 0.00 0.00 79 1016.7
20260901063011 77 211 2.6 5.2 0.00 0.00 0.00 79 1016.7
20260901062504 77 217 2.6 4.3 0.00 0.00 0.00 80 1016.7
20260901062006 77 201 1.7 3.5 0.00 0.00 0.00 79 1016.7
20260901061508 78 213 0.9 3.5 0.00 0.00 0.00 79 1016.7
20260901061004 78 202 0.9 4.3 0.00 0.00 0.00 79 1016.6
20260901060503 78 215 1.7 6.1 0.00 0.00 0.00 78 1016.6
20260901060009 78 204 2.6 6.1 0.00 0.00 0.00 78 1016.6
20260901055504 79 181 1.7 7.0 0.00 0.00 0.00 78 1016.6
20260901055004 79 192 2.6 7.0 0.00 0.00 0.00 78 1016.6
20260901054524 79 197 2.6 6.1 0.00 0.00 0.00 77 1016.6
20260901054005 79 202 2.6 7.0 0.00 0.00 0.00 77 1016.6
20260901053504 79 188 3.5 7.8 0.00 0.00 0.00 77 1016.6
20260901053010 79 195 4.3 7.8 0.00 0.00 0.00 77 1016.6
20260901052503 79 194 3.5 7.0 0.00 0.00 0.00 77 1016.6
20260901052004 79 234 2.6 6.1 0.00 0.00 0.00 78 1016.6
20260901051507 79 187 3.5 7.0 0.00 0.00 0.00 78 1016.5
20260901051011 79 234 2.6 11.3 0.00 0.00 0.00 78 1016.5
20260901050504 79 210 4.3 11.3 0.00 0.00 0.00 78 1016.4
20260901050010 78 179 3.5 7.0 0.00 0.00 0.00 79 1016.3
20260901045504 78 204 3.5 7.0 0.00 0.00 0.00 79 1016.3
20260901045003 78 212 3.5 7.8 0.00 0.00 0.00 79 1016.3
20260901044514 79 189 3.5 9.6 0.00 0.00 0.00 79 1016.3
20260901044004 79 200 5.2 9.6 0.00 0.00 0.00 78 1016.4
20260901043504 79 178 4.3 8.7 0.00 0.00 0.00 78 1016.3
20260901043011 79 220 4.3 8.7 0.00 0.00 0.00 78 1016.2
20260901042505 79 225 5.2 8.7 0.00 0.00 0.00 78 1016.1
20260901042004 79 221 3.5 9.6 0.00 0.00 0.00 78 1016.0
20260901041509 79 213 3.5 9.6 0.00 0.00 0.00 78 1016.1
20260901041002 79 221 4.3 8.7 0.00 0.00 0.00 78 1016.2
20260901040502 78 197 3.5 8.7 0.00 0.00 0.00 79 1016.3
20260901040007 78 195 2.6 6.1 0.00 0.00 0.00 80 1016.4
20260901035506 78 192 3.5 7.0 0.00 0.00 0.00 80 1016.5
20260901035004 78 200 3.5 7.0 0.00 0.00 0.00 80 1016.5
20260901034518 78 200 3.5 6.1 0.00 0.00 0.00 80 1016.7
20260901034003 78 188 0.9 2.6 0.00 0.00 0.00 80 1016.9
20260901033506 78 155 0.9 1.7 0.00 0.00 0.00 80 1017.1
20260901033014 78 202 0.9 1.7 0.00 0.00 0.00 80 1017.4
20260901032506 78 202 0.0 1.7 0.00 0.00 0.00 80 1017.5
20260901032007 78 203 0.0 1.7 0.00 0.00 0.00 80 1017.5
20260901031523 78 203 0.0 1.7 0.00 0.00 0.00 80 1017.7
20260901031004 78 203 0.0 1.7 0.00 0.00 0.00 80 1017.8
20260901030503 78 203 0.0 3.5 0.00 0.00 0.00 80 1017.8
20260901030012 78 199 1.7 3.5 0.00 0.00 0.00 81 1017.5
20260901025505 77 206 1.7 3.5 0.00 0.00 0.00 81 1017.4
20260901025009 78 207 1.7 4.3 0.00 0.00 0.00 81 1017.3
20260901024510 78 198 1.7 7.0 0.00 0.00 0.00 80 1017.2
20260901024006 78 203 2.6 7.0 0.00 0.00 0.00 79 1017.3
20260901023504 78 178 1.7 5.2 0.00 0.00 0.00 79 1017.3
20260901023019 78 166 0.9 2.6 0.00 0.00 0.00 79 1017.3
20260901022505 78 144 1.7 2.6 0.00 0.00 0.00 79 1017.5
20260901022008 78 146 1.7 2.6 0.00 0.00 0.00 79 1017.5
20260901021514 78 141 1.7 2.6 0.00 0.00 0.00 80 1017.6
20260901021007 78 147 0.9 2.6 0.00 0.00 0.00 80 1017.6
20260901020511 78 161 0.9 2.6 0.00 0.00 0.00 81 1017.5
20260901020014 77 167 0.9 2.6 0.00 0.00 0.00 81 1017.6
20260901015507 77 140 0.9 1.7 0.00 0.00 0.00 81 1017.6
20260901015012 76 202 0.0 1.7 0.00 0.00 0.00 82 1017.6
20260901014515 76 202 0.0 1.7 0.00 0.00 0.00 82 1017.6
20260901014006 77 204 0.0 2.6 0.00 0.00 0.00 80 1017.5
20260901013509 77 204 0.9 2.6 0.00 0.00 0.00 80 1017.5
20260901013033 78 187 0.0 2.6 0.00 0.00 0.00 79 1017.5
20260901012503 78 143 0.0 2.6 0.00 0.00 0.00 78 1017.5
20260901012007 78 142 0.9 2.6 0.00 0.00 0.00 78 1017.3
20260901011523 78 142 0.9 2.6 0.00 0.00 0.00 78 1017.3
20260901011006 78 146 0.9 1.7 0.00 0.00 0.00 78 1017.4
20260901010504 78 146 0.0 0.0 0.00 0.00 0.00 78 1017.4
20260901010015 79 146 0.0 1.7 0.00 0.00 0.00 79 1017.4
20260901005508 79 146 0.0 1.7 0.00 0.00 0.00 77 1017.3
20260901005006 79 146 0.9 1.7 0.00 0.00 0.00 77 1017.1
20260901004516 79 146 0.9 1.7 0.00 0.00 0.00 77 1017.1
20260901004008 79 146 0.9 1.7 0.00 0.00 0.00 77 1017.1
20260901003505 79 146 0.9 1.7 0.00 0.00 0.00 77 1017.1
20260901003015 79 146 1.7 1.7 0.00 0.00 0.00 77 1017.2
20260901002508 79 146 0.9 1.7 0.00 0.00 0.00 77 1017.2
20260901002008 80 146 1.7 1.7 0.00 0.00 0.00 77 1017.1
20260901001515 80 156 1.7 1.7 0.00 0.00 0.00 76 1017.0
20260901001008 81 162 0.9 1.7 0.00 0.00 0.00 75 1017.1
20260901000508 81 194 0.9 0.9 0.00 0.00 0.00 74 1017.0
20260901000018 81 194 0.9 1.7 0.00 0.00 0.00 73 1017.0
20260831235508 82 194 0.9 1.7 0.00 0.00 0.00 72 1016.8
20260831235007 82 194 0.9 0.9 0.00 0.00 0.00 72 1016.9
20260831234519 83 194 0.0 0.9 0.00 0.00 0.00 72 1017.0
20260831234008 83 194 0.0 1.7 0.00 0.00 0.00 71 1017.1
20260831233513 83 194 0.0 1.7 0.00 0.00 0.00 71 1016.9
20260831233015 84 194 0.0 1.7 0.00 0.00 0.00 70 1016.9
20260831232510 84 194 0.0 1.7 0.00 0.00 0.00 68 1017.0
20260831232011 84 194 0.0 1.7 0.00 0.00 0.00 68 1017.1
20260831231517 85 194 0.0 1.7 0.00 0.00 0.00 67 1016.9
20260831231009 85 194 0.0 3.5 0.00 0.00 0.00 67 1016.8
20260831230510 85 186 0.9 2.6 0.00 0.00 0.00 66 1016.8
20260831230019 86 213 0.9 3.5 0.00 0.00 0.00 66 1016.7
20260831225512 86 203 1.7 3.5 0.00 0.00 0.00 65 1016.6
20260831225010 86 198 0.9 3.5 0.00 0.00 0.00 65 1016.4
20260831224520 86 203 1.7 3.5 0.00 0.00 0.00 64 1016.4
20260831224008 86 182 1.7 6.1 0.00 0.00 0.00 64 1016.5
20260831223509 86 205 1.7 6.1 0.00 0.00 0.00 64 1016.6
20260831223018 87 213 2.6 4.3 0.00 0.00 0.00 63 1016.7
20260831222510 87 198 1.7 4.3 0.00 0.00 0.00 63 1016.6
20260831222011 88 225 0.9 3.5 0.00 0.00 0.00 63 1016.6
20260831221517 88 211 1.7 7.0 0.00 0.00 0.00 62 1016.5
20260831221012 88 213 1.7 7.0 0.00 0.00 0.00 63 1016.6
20260831220512 88 203 2.6 5.2 0.00 0.00 0.00 60 1016.6
20260831220022 88 184 2.6 7.0 0.00 0.00 0.00 61 1016.5
20260831215508 88 221 3.5 7.0 0.00 0.00 0.00 60 1016.4
20260831215009 88 201 3.5 6.1 0.00 0.00 0.00 60 1016.5
20260831214524 88 225 2.6 7.0 0.00 0.00 0.00 61 1016.5
20260831214009 88 219 2.6 7.0 0.00 0.00 0.00 61 1016.7
20260831213510 88 219 2.6 8.7 0.00 0.00 0.00 59 1016.7
20260831213022 89 197 1.7 8.7 0.00 0.00 0.00 58 1016.6
20260831212510 89 217 2.6 7.8 0.00 0.00 0.00 58 1016.6
20260831212010 89 209 4.3 7.8 0.00 0.00 0.00 57 1016.6
20260831211521 89 169 3.5 7.8 0.00 0.00 0.00 56 1016.5
20260831211007 89 205 3.5 8.7 0.00 0.00 0.00 58 1016.5
20260831210509 90 215 2.6 9.6 0.00 0.00 0.00 58 1016.5
20260831210020 89 200 3.5 9.6 0.00 0.00 0.00 59 1016.5
20260831205511 89 195 4.3 8.7 0.00 0.00 0.00 57 1016.5
20260831205013 89 209 2.6 7.8 0.00 0.00 0.00 62 1016.5
20260831204517 89 198 4.3 8.7 0.00 0.00 0.00 60 1016.7
20260831204011 89 203 5.2 8.7 0.00 0.00 0.00 59 1016.6
20260831203509 88 200 2.6 6.1 0.00 0.00 0.00 62 1016.6
20260831203027 87 244 3.5 7.0 0.00 0.00 0.00 64 1016.6
20260831202503 88 199 3.5 10.4 0.00 0.00 0.00 63 1016.4
20260831202003 88 187 4.3 10.4 0.00 0.00 0.00 64 1016.3
20260831201512 87 281 5.2 8.7 0.00 0.00 0.00 65 1016.4
20260831201004 86 190 3.5 8.7 0.00 0.00 0.00 65 1016.7
20260831200504 86 211 3.5 7.0 0.00 0.00 0.00 66 1016.7
20260831200009 86 242 3.5 6.1 0.00 0.00 0.00 70 1016.7
20260831195507 85 167 1.7 4.3 0.00 0.00 0.00 71 1017.3
20260831195007 84 209 0.9 4.3 0.00 0.00 0.00 71 1017.7
20260831194523 84 211 1.7 6.1 0.00 0.00 0.00 69 1017.8
20260831194009 84 260 1.7 6.1 0.00 0.00 0.00 70 1017.8
20260831193510 84 157 2.6 6.1 0.00 0.00 0.00 71 1017.8
20260831193028 83 227 2.6 6.1 0.00 0.00 0.00 71 1017.9
20260831192514 83 217 2.6 6.1 0.00 0.00 0.00 72 1017.8
20260831192014 83 213 4.3 6.1 0.00 0.00 0.00 70 1017.9
20260831191505 83 223 2.6 4.3 0.00 0.00 0.00 71 1018.0
20260831191008 83 209 2.6 4.3 0.00 0.00 0.00 70 1018.1
20260831190507 83 206 1.7 4.3 0.00 0.00 0.00 71 1018.2
20260831190016 83 200 1.7 4.3 0.00 0.00 0.00 69 1018.2
20260831185506 83 200 2.6 4.3 0.00 0.00 0.00 68 1018.4
20260831185006 83 203 2.6 5.2 0.00 0.00 0.00 67 1018.6
20260831184512 84 215 0.9 6.1 0.00 0.00 0.00 68 1018.7
20260831184010 84 200 3.5 7.0 0.00 0.00 0.00 66 1018.6
20260831183509 85 175 3.5 7.0 0.00 0.00 0.00 64 1018.6
20260831183021 85 231 1.7 4.3 0.00 0.00 0.00 63 1019.0
20260831182511 86 309 1.7 5.2 0.00 0.00 0.00 63 1019.1
20260831182012 86 269 1.7 5.2 0.00 0.00 0.00 64 1019.1
20260831181529 86 204 1.7 7.0 0.00 0.00 0.00 64 1019.1
20260831181013 86 324 1.7 7.0 0.00 0.00 0.00 63 1019.1
20260831180503 85 302 1.7 5.2 0.00 0.00 0.00 61 1019.1
20260831180012 85 194 1.7 5.2 0.00 0.00 0.00 63 1019.2
20260831175505 85 247 2.6 5.2 0.00 0.00 0.00 64 1019.1
20260831175005 85 218 1.7 5.2 0.00 0.00 0.00 69 1019.1
20260831174510 85 214 1.7 6.1 0.00 0.00 0.00 68 1019.1
20260831174006 84 218 1.7 6.1 0.00 0.00 0.00 68 1019.1
20260831173508 84 219 1.7 5.2 0.00 0.00 0.00 67 1019.2
20260831173017 84 292 1.7 5.2 0.00 0.00 0.00 69 1019.3
20260831172510 83 293 1.7 3.5 0.00 0.00 0.00 71 1019.4
20260831172011 83 241 1.7 4.3 0.00 0.00 0.00 71 1019.4
20260831171524 83 200 0.9 4.3 0.00 0.00 0.00 72 1019.5
20260831171013 83 219 2.6 5.2 0.00 0.00 0.00 70 1019.5
20260831170515 83 237 0.9 5.2 0.00 0.00 0.00 70 1019.5
20260831170033 83 232 2.6 7.0 0.00 0.00 0.00 72 1019.5
20260831165503 83 217 2.6 7.0 0.00 0.00 0.00 70 1019.5
20260831165003 83 225 1.7 6.1 0.00 0.00 0.00 74 1019.5
20260831164517 82 235 1.7 6.1 0.00 0.00 0.00 75 1019.5
20260831164002 82 211 1.7 5.2 0.00 0.00 0.00 75 1019.5
20260831163506 82 196 2.6 5.2 0.00 0.00 0.00 74 1019.5
20260831163018 82 200 1.7 5.2 0.00 0.00 0.00 75 1019.3
20260831162513 82 169 2.6 5.2 0.00 0.00 0.00 75 1019.4
20260831162009 82 236 1.7 5.2 0.00 0.00 0.00 75 1019.4
20260831161523 82 252 1.7 6.1 0.00 0.00 0.00 76 1019.4
20260831161010 81 227 2.6 6.1 0.00 0.00 0.00 77 1019.4
20260831160512 81 202 2.6 4.3 0.00 0.00 0.00 77 1019.3
20260831160026 81 210 1.7 4.3 0.00 0.00 0.00 78 1019.4
20260831155516 80 185 1.7 4.3 0.00 0.00 0.00 78 1019.5
20260831155016 80 155 1.7 4.3 0.00 0.00 0.00 77 1019.5
20260831154518 80 210 1.7 5.2 0.00 0.00 0.00 77 1019.4
20260831154002 80 211 2.6 5.2 0.00 0.00 0.00 77 1019.4
20260831153505 80 192 2.6 3.5 0.00 0.00 0.00 78 1019.3
20260831153012 80 202 1.7 4.3 0.00 0.00 0.00 79 1019.4
20260831152509 80 218 1.7 6.1 0.00 0.00 0.00 77 1019.4
20260831152007 80 273 0.9 6.1 0.00 0.00 0.00 76 1019.4
20260831151520 80 199 2.6 5.2 0.00 0.00 0.00 76 1019.3
20260831151009 80 185 3.5 5.2 0.00 0.00 0.00 75 1019.3
20260831150511 80 212 3.5 5.2 0.00 0.00 0.00 75 1019.3
20260831150027 80 234 1.7 7.8 0.00 0.00 0.00 76 1019.3
20260831145515 80 215 2.6 7.8 0.00 0.00 0.00 76 1019.2
20260831145014 79 242 2.6 5.2 0.00 0.00 0.00 76 1019.2
20260831144531 79 191 2.6 6.1 0.00 0.00 0.00 76 1019.2
20260831144012 79 225 1.7 6.1 0.00 0.00 0.00 76 1019.2
20260831143507 79 219 1.7 5.2 0.00 0.00 0.00 77 1019.2
20260831143015 79 192 2.6 5.2 0.00 0.00 0.00 77 1019.1
20260831142504 79 202 2.6 5.2 0.00 0.00 0.00 77 1019.0
20260831142006 79 254 2.6 4.3 0.00 0.00 0.00 77 1019.1
20260831141517 79 193 1.7 6.1 0.00 0.00 0.00 77 1019.0
20260831141008 78 184 3.5 6.1 0.00 0.00 0.00 76 1018.9
20260831140514 78 194 2.6 5.2 0.00 0.00 0.00 76 1018.9
20260831140033 78 215 2.6 5.2 0.00 0.00 0.00 78 1018.9
20260831135513 78 101 1.7 3.5 0.00 0.00 0.00 76 1018.9
20260831135015 77 182 1.7 4.3 0.00 0.00 0.00 77 1018.9
20260831134528 77 214 1.7 4.3 0.00 0.00 0.00 76 1018.9
20260831134015 77 211 1.7 4.3 0.00 0.00 0.00 76 1018.9
20260831133513 77 227 2.6 4.3 0.00 0.00 0.00 76 1018.9
20260831133034 77 190 2.6 6.1 0.00 0.00 0.00 75 1019.0
20260831132505 77 241 2.6 6.1 0.00 0.00 0.00 75 1019.0
20260831132006 77 205 2.6 5.2 0.00 0.00 0.00 75 1019.0
20260831131514 77 233 2.6 4.3 0.00 0.00 0.00 76 1018.9
20260831131009 76 226 1.7 4.3 0.00 0.00 0.00 76 1018.8
20260831130510 76 212 2.6 5.2 0.00 0.00 0.00 76 1018.8
20260831130023 76 194 1.7 5.2 0.00 0.00 0.00 77 1018.7
20260831125512 75 211 1.7 3.5 0.00 0.00 0.00 80 1018.7
20260831125013 74 195 1.7 3.5 0.00 0.00 0.00 81 1018.7
20260831124527 73 204 1.7 2.6 0.00 0.00 0.00 81 1018.7
20260831124015 73 197 1.7 3.5 0.00 0.00 0.00 81 1018.8
20260831123515 73 210 1.7 3.5 0.00 0.00 0.00 81 1018.7
20260831123030 73 183 1.7 3.5 0.00 0.00 0.00 81 1018.7
20260831122521 73 207 1.7 2.6 0.00 0.00 0.00 81 1018.7
20260831122015 73 193 0.9 3.5 0.00 0.00 0.00 82 1018.7
20260831121512 72 165 1.7 4.3 0.00 0.00 0.00 82 1018.6
20260831121006 72 203 1.7 4.3 0.00 0.00 0.00 82 1018.6
20260831120508 72 171 0.9 4.3 0.00 0.00 0.00 83 1018.7
20260831120018 72 188 1.7 3.5 0.00 0.00 0.00 83 1018.6
20260831115509 71 178 0.9 3.5 0.00 0.00 0.00 83 1018.6
20260831115012 71 198 0.9 3.5 0.00 0.00 0.00 83 1018.5
20260831114531 71 191 0.9 3.5 0.00 0.00 0.00 83 1018.5
20260831114013 71 198 0.9 2.6 0.00 0.00 0.00 83 1018.5
20260831113518 71 202 0.9 4.3 0.00 0.00 0.00 83 1018.5
20260831113030 71 200 1.7 4.3 0.00 0.00 0.00 83 1018.5
20260831112517 71 200 0.9 4.3 0.00 0.00 0.00 83 1018.6
20260831112017 71 205 1.7 4.3 0.00 0.00 0.00 83 1018.6
20260831111533 71 194 0.9 2.6 0.00 0.00 0.00 83 1018.5
20260831111015 71 185 0.9 2.6 0.00 0.00 0.00 83 1018.4
20260831110510 71 208 1.7 2.6 0.00 0.00 0.00 83 1018.5
20260831110014 72 191 1.7 2.6 0.00 0.00 0.00 83 1018.5
20260831105510 72 200 0.9 1.7 0.00 0.00 0.00 83 1018.4
20260831105010 72 199 0.9 1.7 0.00 0.00 0.00 83 1018.4
20260831104526 72 207 0.9 2.6 0.00 0.00 0.00 83 1018.4
20260831104013 72 202 0.9 2.6 0.00 0.00 0.00 83 1018.4
20260831103513 72 209 0.9 2.6 0.00 0.00 0.00 83 1018.2
20260831103027 71 186 1.7 2.6 0.00 0.00 0.00 84 1018.2
20260831102513 71 202 0.0 1.7 0.00 0.00 0.00 84 1018.2
20260831102017 71 198 0.0 1.7 0.00 0.00 0.00 85 1018.2
20260831101532 71 198 0.0 1.7 0.00 0.00 0.00 85 1018.1
20260831101017 71 198 0.0 1.7 0.00 0.00 0.00 85 1018.1
20260831100517 71 198 0.9 2.6 0.00 0.00 0.00 85 1018.0
20260831100037 71 198 0.0 2.6 0.00 0.00 0.00 85 1018.0
20260831095504 71 184 0.0 1.7 0.00 0.00 0.00 85 1017.9
20260831095009 71 178 0.0 1.7 0.00 0.00 0.00 85 1017.8
20260831094518 71 215 0.0 1.7 0.00 0.00 0.00 85 1017.9